www.pogodaiklimat.ru

Погода и климат >> Архив погоды >> Россия >> Якутия >> Покровск


ПОГОДА в Покровске

  • Прогноз погоды в Покровске
  • Монитор погоды в Покровске

АРХИВ ПОГОДЫ в Покровске

Время (UTC), дата Ветер
(напр.,м/с)
 
Видим.   Явления Облачность Т
(С)
Тd
(С)
f
(%)
Тe
(С)
Тes
(С)
Комфортность P
(гПа)
Po
(гПа)
Тmin
(С)
Tmax
(С)
R
(мм)
R24
(мм)
S
(см)
06 13.02 СВ 2 50 км 6/0
[Cs]
-33.1 -35.4 80 -41 -41 опасность
обморожения
1020.1 1002.6
09 13.02 СВ 2 10 км 10/0
[Cs]
-33.7 -35.9 80 -42 -42 опасность
обморожения
1020.8 1003.3
12 13.02 С 2 10 км слаб. снег 10/0
[Cs]
-34.9 -37.1 80 -43 -43 опасность
обморожения
1020.1 1002.6 -29.1 0.0
15 13.02 СВ 2 10 км слаб. снег 10/0
[Cs]
-34.3 -36.5 80 -42 -42 опасность
обморожения
1018.4 1001.0
18 13.02 СВ 4 10 км слаб. снег 10/0
[Cs]
-33.1 -35.4 80 -45 -45 опасность
обморожения
1017.2 999.8
21 13.02 СВ 1 10 км слаб. снег 10/0
[Cs]
-33.2 -35.4 80 -38 -38 опасность
обморожения
1017.7 1000.3
00 14.02 З 1 20 км {снег} ясно -37.2 -39.5 79 -42 -42 опасность
обморожения
1019.7 1002.1 -37.2 1 31
03 14.02 ЮВ 1 50 км 4/0
[Ci fib]
-31.1 -34.1 75 -35 -34 опасность
обморожения
1020.0 1002.7
06 14.02 СВ 1 50 км 10/0
[Ci fib]
-30.0 -33.0 75 -34 -34 опасность
обморожения
1019.2 1002.1
09 14.02 СВ 1 10 км слаб. снег 10/0
[Cs]
-30.5 -33.0 79 -35 -35 опасность
обморожения
1019.2 1002.1
12 14.02 СЗ 1 10 км слаб. снег 10/0
[Cs]
-32.8 -35.1 80 -37 -37 опасность
обморожения
1019.3 1002.1 -29.8 0.2
15 14.02 ЮЗ 1 10 км слаб. снег 10/0
[Cs]
-34.6 -36.8 80 -39 -39 опасность
обморожения
1018.9 1001.5
18 14.02 штиль 0 10 км слаб. снег 10/0
[Cs]
-35.4 -37.7 79 -35 -35 опасность
обморожения
1017.3 999.8
21 14.02 СВ 1 10 км слаб. снег 10/0
[Cs]
-33.2 -35.6 79 -38 -38 опасность
обморожения
1015.3 997.9
00 15.02 штиль 0 10 км слаб. снег 10/0
[Cs]
-33.9 -36.2 80 -34 -34 опасность
обморожения
1013.3 996.0 -36.1 0.5 32
03 15.02 штиль 0 10 км слаб. снег 10/0
[As op]
-29.3 -31.8 79 -29 -29 1008.6 991.7
06 15.02 З 1 10 км слаб. снег 10/0
[As op]
-18.1 -20.0 85 -21 -21 1006.8 990.7
09 15.02 СВ 2 10 км слаб. снег 10/0
[As op]
-19.4 -21.3 85 -25 -25 1006.9 990.6
12 15.02 СВ 2 10 км слаб. снег 10/0
[As op]
-25.4 -27.2 85 -32 -32 опасность
обморожения
1007.2 990.6 -15.5 1
15 15.02 СВ 2 10 км слаб. снег 10/0
[As op]
-26.5 -28.4 84 -33 -33 опасность
обморожения
1006.7 990.1
18 15.02 С 2 10 км слаб. снег 10/0
[As op]
-28.6 -31.0 80 -36 -36 опасность
обморожения
1004.8 988.0
21 15.02 С 2 10 км слаб. снег 10/0
[As op]
-28.4 -30.2 84 -36 -36 опасность
обморожения
1002.1 985.4
00 16.02 С 1 10 км слаб. снег 10/0
[As op]
-26.3 -28.1 85 -30 -30 999.8 983.2 -28.8 1 33
03 16.02 З 2 10 км слаб. снег 10/0
[As op]
-26.1 -28.6 79 -33 -33 опасность
обморожения
998.8 982.3
06 16.02 СВ 2 10 км слаб. снег 10/0
[As op]
-25.3 -27.8 80 -32 -32 опасность
обморожения
999.6 983.0
09 16.02 ЮВ 2 10 км слаб. снег 10/0
[Cs]
-26.0 -27.8 85 -33 -33 опасность
обморожения
1000.8 984.2
12 16.02 С 2 10 км слаб. снег 10/0
[Cs]
-26.3 -28.1 85 -33 -33 опасность
обморожения
1002.2 985.6 -24.2 1
15 16.02 штиль 0 10 км слаб. снег 10/0
[Cs]
-27.3 -29.2 84 -27 -27 1003.3 986.6
18 16.02 штиль 0 10 км слаб. снег 10/0
[Cs]
-27.5 -29.3 85 -28 -28 1004.1 987.4
21 16.02 З 1 10 км слаб. снег 10/0
[Cs]
-28.1 -29.8 85 -32 -32 опасность
обморожения
1005.9 989.1
00 17.02 З 2 50 км {снег} 8/0
[Ci fib]
-32.8 -35.1 80 -41 -40 опасность
обморожения
1008.4 991.3 -32.8 1 33
03 17.02 З 4 50 км ясно -19.5 -22.1 80 -28 -27 1008.3 992.0
06 17.02 З 5 50 км ясно -18.6 -21.2 80 -28 -28 1008.9 992.7
09 17.02 З 2 50 км ясно -20.8 -23.3 80 -27 -27 1009.7 993.4
12 17.02 З 1 10 км слаб. снег 10/0
[Cs]
-28.7 -31.2 79 -33 -33 опасность
обморожения
1011.3 994.4 -18.6 0.0
15 17.02 З 2 10 км слаб. снег 10/0
[Cs]
-32.5 -34.8 80 -40 -40 опасность
обморожения
1011.6 994.4
18 17.02 З 3 20 км {снег} ясно -32.5 -37.4 61 -43 -43 опасность
обморожения
1011.6 994.2
21 17.02 З 1 20 км ясно -38.1 -40.3 80 -43 -43 опасность
обморожения
1012.0 994.4
00 18.02 З 1 50 км 10/0
[Ci fib]
-38.9 -41.2 79 -44 -44 опасность
обморожения
1012.4 994.8 -38.9 0.0 35
03 18.02 СВ 2 50 км 6/0
[Ci fib]
-31.1 -33.4 80 -39 -37 опасность
обморожения
1012.5 995.4 -39.1
06 18.02 С 3 50 км 3/0
[Ci fib]
-26.5 -28.4 84 -35 -35 опасность
обморожения
1012.4 995.7
09 18.02 СВ 3 50 км ясно -27.0 -28.8 85 -36 -36 опасность
обморожения
1013.6 996.8
12 18.02 С 2 20 км ясно -29.6 -31.3 85 -37 -37 опасность
обморожения
1015.2 998.1 -25.5
15 18.02 С 1 20 км ясно -36.4 -38.8 78 -41 -41 опасность
обморожения
1016.5 999.0
18 18.02 ЮЗ 1 20 км ясно -37.6 -39.9 79 -43 -43 опасность
обморожения
1017.7 1000.0
21 18.02 штиль 0 20 км 4/0
[Ci fib]
-37.3 -39.5 80 -37 -37 опасность
обморожения
1018.2 1000.5
00 19.02 ЮЗ 1 20 км {снег} ясно -37.7 -39.9 80 -43 -42 опасность
обморожения
1018.5 1000.8 -38.7 0.0 35
03 19.02 СВ 2 50 км ясно -31.5 -33.9 79 -39 -37 опасность
обморожения
1018.1 1000.9
06 19.02 С 3 50 км 3/0
[Ci fib]
-28.3 -30.7 80 -38 -37 опасность
обморожения
1016.2 999.2
09 19.02 СВ 6 50 км позёмок 10/0
[Cs]
-28.1 -30.5 80 -41 -41 опасность
обморожения
1014.3 997.4
12 19.02 СВ 6 20 км позёмок 10/0
[As trans]
-24.7 -26.5 85 -37 -37 опасность
обморожения
1012.3 995.7 -24.7
15 19.02 СВ 6 20 км слаб. снег {метель} 10/0
[As op]
-22.1 -23.4 89 -34 -34 опасность
обморожения
1011.1 994.6
18 19.02 СВ 6 10 км слаб. снег {метель} 10/0
[As op]
-22.0 -23.3 89 -33 -33 опасность
обморожения
1011.3 994.8
21 19.02 СВ 6 10 км слаб. снег {метель} 10/0
[As op]
-23.2 -25.0 85 -35 -35 опасность
обморожения
1012.4 995.8
00 20.02 С 4 10 км слаб. снег {метель} 10/0
[Cs]
-24.7 -26.5 85 -35 -35 опасность
обморожения
1014.2 997.5 -24.7 0.5 35
03 20.02 СВ 1 10 км в посл. час снег 10/0
[Cs]
-24.7 -27.2 80 -28 -26 1016.1 999.4

 

Местоположение метеостанции Покровск (Якутия, Россия): широта 61.48 долгота 129.10 высота над уровнем моря 121 м.

В архиве по умолчанию представлена погода в Покровске за последнюю неделю. Архивные данные за месяц целиком и за предыдущие месяцы, начиная с января 2011 года, Вы можете получить, выбрав интересующий диапазон дат из раскрывающегося списка и нажав кнопку "Ввод!".


*Определитесь, кто Вы:
робот инопланетянин человек

Внимание! Время в таблицах - всемирное. Для получения местного времени необходимо прибавить поправку, которая равна 9 ч.

Смотрите также архив погоды в соседних городах и на ближайших метеорологических станциях:

Погода в Якутске (Якутия, Россия) (64 км)
Погода в Тегюльте (Якутия, Россия) (122 км)
Погода в Намцах (Якутия, Россия) (140 км)
Погода в Бердигестяхе (Якутия, Россия) (141 км)
Погода в Амге (Якутия, Россия) (163 км)
Погода в Чурапче (Якутия, Россия) (194 км)
Погода в Исити (Якутия, Россия) (217 км)
Погода в Батамае (Якутия, Россия) (227 км)
Погода в Буяге (Якутия, Россия) (232 км)
Погода в Тонгулахе (Якутия, Россия) (247 км)

Пояснения к столбцам:

Ветер - указаны скорость ветра в м/с - средняя за 10 мин, порывы в срок и между сроками (в фигурных скобках) и направление, откуда дует ветер: С - северный, СВ - северо-восточный, В - восточный, ЮВ - юго-восточный, Ю - южный, ЮЗ - юго-западный, З - западный, СЗ - северо-западный.
Видимость - горизонтальная дальность видимости в метрах или километрах. При видимости от 1 до 10 км при отсутствии осадков обычно наблюдается дымка, при ухудшении видимости до 1 км и менее - туман. В сухую погоду видимость может ухудшаться дымом, пылью или мглою.
Явления - указаны атмосферные явления, наблюдавшиеся в срок или в последний час перед сроком; фигурными скобками обозначены явления, наблюдавшиеся между сроками (за 1-3 часа до срока); квадратными скобками обозначены град или гололедные отложения с указанием их диаметра в мм.
Облачность - указаны через наклонную черту общая и нижняя облачность в баллах и высота нижней границы облаков в метрах; квадратными скобками обозначены формы облаков: Ci - перистые, Cs - перисто-слоистые, Cc - перисто-кучевые, Ac - высококучевые, As - высокослоистые, Sc - слоисто-кучевые, Ns - слоисто-дождевые, Cu - кучевые, Cb - кучево-дождевые. Подробнее классификацию облаков см. в Атласе облаков (PDF).
T - Температура воздуха - температура, измеренная на высоте 2 м над землей.
Td - Температура точки росы - температура, при понижении до которой содержащийся в воздухе водяной пар достигнет насыщения.
f - Относительная влажность воздуха - влажноcть воздуха, измеренная на высоте 2 м над землей.
Te - Эффективная температура - температура, которую ощущает одетый по сезону человек в тени. Характеристика душности погоды. При расчете учитывается влияние влажности воздуха и скорости ветра на теплоощущения человека.
Tes - Эффективная температура на солнце - температура, которую ощущает человек, с поправкой на солнечный нагрев. Характеристика знойности погоды. Зависит от высоты солнца над горизонтом, облачности и скорости ветра. Ночью, в пасмурную погоду, а также при ветре 12 м/с и более поправка равна нулю.
P - Атмосферное давление - приведенное к уровню моря атмосферное давление.
Po - Атмосферное давление - измеренное на уровне метеостанции атмосферное давление.
Tmin - Минимальная температура - минимум температуры воздуха на высоте 2 м над землей.
Tmax - Максимальная температура - максимум температуры воздуха на высоте 2 м над землей.
R - Количество осадков - Количество выпавших осадков за период времени, мм. При наведении курсора мыши на число - период времени, за который выпало указанное количество осадков.
R24 - Количество осадков - Количество выпавших осадков за 24 часа, мм.
S - Снежный покров - Высота снежного покрова, см. При наведении курсора мыши на число - состояние снежного покрова и степень покрытия местности в баллах.